This demonstration page uses our WeatherBlox Daily Observations layout. Learn more.

Left ArrowRight Arrow

Hourly Observations for January 28, 2022

Temp ( °F °C ) Dew Point ( °F °C ) Humidity (%) Winds ( mph kmh ) Pressure ( in mb ) Visibility ( mi km ) Precip ( " mm )
12:53 am 00:53 Clear 45 7.2 32 0 61 61 E 6 9 30.17 1022 10 16 0.00 0.00
1:53 am 01:53 Clear 43 6.1 33 0.6 68 68 Calm 30.16 1021 10 16 0.00 0.00
2:53 am 02:53 Clear 42 5.6 34 1.1 73 73 NNE 3 6 30.14 1021 10 16 0.00 0.00
3:53 am 03:53 Clear 40 4.4 35 1.7 83 83 N 3 6 30.14 1021 10 16 0.00 0.00
4:53 am 04:53 Clear 40 4.4 34 1.1 79 79 Calm 30.12 1020 10 16 0.00 0.00
5:53 am 05:53 Clear 40 4.4 33 0.6 77 77 Calm 30.13 1020 10 16 0.00 0.00
6:53 am 06:53 Cloudy 40 4.4 33 0.6 77 77 NE 3 6 30.13 1020 10 16 0.00 0.00
7:53 am 07:53 Partly Cloudy 42 5.6 34 1.1 73 73 Calm 30.12 1020 10 16 0.00 0.00
8:53 am 08:53 Mostly Cloudy 46 7.8 35 1.7 66 66 Calm 30.11 1020 10 16 0.00 0.00
9:53 am 09:53 Mostly Sunny 49 9.4 35 1.7 59 59 Calm 30.13 1020 10 16 0.00 0.00
10:53 am 10:53 Sunny 53 11.7 37 2.8 55 55 W 9 15 30.11 1020 10 16 0.00 0.00
11:53 am 11:53 Mostly Cloudy 51 10.6 36 2.2 56 56 W 7 11 30.07 1018 10 16 0.00 0.00
12:53 pm 12:53 Partly Cloudy 50 10 35 1.7 57 57 NW 13 20 30.04 1017 10 16 0.00 0.00
1:53 pm 13:53 Mostly Cloudy 51 10.6 34 1.1 52 52 WNW 14 22 30.04 1017 10 16 0.00 0.00
2:53 pm 14:53 Partly Cloudy 52 11.1 27 -2.8 38 38 WNW 20 31 30.04 1017 10 16 0.00 0.00
3:53 pm 15:53 Sunny 53 11.7 26 -3.3 35 35 NW 20 31 30.04 1017 10 16 0.00 0.00
4:53 pm 16:53 Sunny 50 10 27 -2.8 41 41 NW 23 37 30.05 1018 10 16 0.00 0.00
5:53 pm 17:53 Mostly Clear 47 8.3 25 -3.9 42 42 NW 16 26 30.10 1019 10 16 0.00 0.00
6:53 pm 18:53 Clear 45 7.2 23 -5 42 42 NW 15 24 30.12 1020 10 16 0.00 0.00
7:53 pm 19:53 Clear 43 6.1 21 -6.1 42 42 NW 10 17 30.14 1021 10 16 0.00 0.00
8:53 pm 20:53 Clear 41 5 20 -6.7 43 43 WNW 10 17 30.16 1021 10 16 0.00 0.00
9:53 pm 21:53 Clear 41 5 19 -7.2 41 41 WNW 15 24 30.17 1022 10 16 0.00 0.00
10:53 pm 22:53 Clear 40 4.4 19 -7.2 43 43 WNW 14 22 30.17 1022 10 16 0.00 0.00
11:53 pm 23:53 Clear 38 3.3 18 -7.8 44 44 WNW 15 24 30.16 1021 10 16 0.00 0.00

Powered by AerisWeather